Kuchera_Ratio
0.0 0.0 0.0 0.0 0.0 0.0 0.0 0.0 0.0 0.0 0.0 0.0 0.0 0.0 0.0 0.0 0.0 0.0 0.0 0.0 0.0 0.0 0.0 0.0 0.0 0.0 0.0 0.0 0.0 0.0 0.0 0.0 0.0 0.0 0.0 0.0 0.0 0.0 0.0 0.0 0.0 0.0 0.0
0.0 0.0 0.0 0.0 0.0 0.0 0.0 0.0 0.0 0.0 0.0 0.0 0.0 0.0 0.0 0.0 0.0 0.0 0.0 0.0 0.0 0.0 0.0 0.0 0.0 0.0 0.0 0.0 0.0 0.0 0.0 0.0 0.0 0.0 0.0 0.0 0.0 0.0 0.0 0.0 0.0 0.0 0.0
0.0 0.0 0.0 0.0 0.0 0.0 0.0 0.0 0.0 0.0 0.0 0.0 0.0 0.0 0.0 0.0 0.0 0.0 0.0 0.0 0.0 0.0 0.0 0.0 0.0 0.0 0.0 0.0 0.0 0.0 0.0 0.0 0.0 0.0 0.0 0.0 0.0 0.0 0.0 0.0 0.0 0.0 0.0
0.0 0.0 0.0 0.0 0.0 0.0 0.0 0.0 0.0 0.0 0.0 0.0 0.0 0.0 0.0 0.0 0.0 0.0 0.0 0.0 0.0 0.0 0.0 0.0 0.0 0.0 0.0 0.0 0.0 0.0 0.0 0.0 0.0 1.9 1.1 0.0 0.0 0.0 0.0 0.0 0.0 0.0 0.0
0.0 0.0 0.0 0.0 0.0 0.0 0.0 0.0 0.0 0.0 0.0 0.0 0.0 0.0 0.0 0.0 0.0 0.0 0.0 0.0 0.0 0.0 0.0 0.0 0.0 0.0 0.0 0.0 0.0 0.0 0.0 1.3 1.9 4.6 0.9 0.0 0.0 0.0 0.0 0.0 0.9 0.0 0.0
0.0 0.0 0.0 0.0 0.0 0.0 0.0 0.0 0.0 0.0 0.0 0.0 0.0 0.0 0.0 0.0 0.0 0.0 0.0 0.0 0.0 0.0 0.0 0.0 0.0 0.0 0.0 0.0 0.0 0.0 0.0 2.0 3.8 1.3 0.0 0.0 0.0 0.0 0.0 1.7 2.3 2.7 2.9
0.0 0.0 0.0 0.0 0.0 0.0 0.0 0.0 0.0 0.0 0.0 0.0 0.0 0.0 0.0 0.0 0.0 0.0 0.0 0.0 0.0 0.0 0.0 0.0 0.0 0.0 0.0 0.4 2.4 3.4 4.4 4.8 5.1 0.0 0.0 0.5 2.5 0.7 2.7 3.1 2.3 3.5 3.3
0.0 0.0 0.0 0.0 0.0 0.0 0.0 0.0 0.0 0.0 0.0 0.0 0.0 0.0 0.0 0.0 0.0 0.0 0.0 0.0 0.0 0.0 0.0 0.0 0.0 0.0 1.9 2.6 5.0 6.4 5.5 4.9 3.5 2.1 0.9 1.1 1.9 1.3 2.3 2.1 2.7 2.7 0.7
0.0 0.0 0.0 0.0 0.0 0.0 0.0 0.0 0.0 0.0 0.0 0.0 0.0 0.0 0.0 0.0 0.0 0.0 0.0 0.0 0.0 0.0 0.0 0.0 1.8 2.9 4.6 4.5 5.9 7.3 6.5 5.1 5.9 7.1 7.7 8.5 8.3 8.1 6.7 3.7 6.3 7.7 9.5
0.0 0.0 0.0 0.0 0.0 0.0 0.0 0.0 0.0 0.0 0.0 0.0 0.0 0.0 0.0 0.0 0.0 0.0 0.0 0.0 0.0 0.0 0.0 1.9 4.2 5.7 7.1 7.1 6.7 6.3 6.7 5.7 6.3 5.9 4.7 5.9 7.5 6.1 10.1 5.5 6.5 11.5 10.1
0.0 0.0 0.0 0.0 0.0 0.0 0.0 0.0 0.0 0.0 0.0 0.0 0.0 0.0 0.0 0.0 0.0 0.0 0.0 0.6 0.4 1.8 4.2 5.8 7.9 7.3 7.1 7.5 6.7 4.7 7.3 6.9 11.1 8.7 8.7 8.3 7.9 8.9 8.5 8.1 8.1 9.7 11.5
0.0 0.0 0.0 0.0 0.0 0.0 0.0 0.0 0.0 0.0 0.0 0.0 0.0 0.0 0.0 0.0 1.1 2.3 3.0 3.9 5.8 5.7 8.2 9.3 8.3 7.1 7.7 9.1 8.3 11.5 12.6 11.9 10.9 12.1 12.4 12.6 12.6 12.3 10.9 10.9 10.3 9.7 7.7
0.0 0.0 0.0 0.0 0.0 0.0 0.0 0.0 0.0 0.0 0.0 0.0 0.0 0.0 0.5 0.9 3.8 6.4 7.1 7.5 8.1 10.1 9.1 8.7 7.9 7.7 9.7 10.5 11.7 12.7 13.1 12.4 13.0 13.6 13.6 13.4 12.8 12.3 12.1 12.4 12.1 11.1 11.1
0.0 0.0 0.0 0.0 0.0 0.0 0.0 0.0 0.0 0.0 0.0 0.0 1.1 2.6 4.9 6.2 7.7 10.0 10.5 10.3 8.9 8.7 9.7 8.3 9.1 10.3 10.5 11.5 12.2 12.6 12.4 13.0 13.9 13.9 14.2 13.8 13.5 13.9 14.1 13.7 14.7 13.9 14.5
0.0 0.0 0.0 0.0 0.0 0.0 0.0 0.0 0.2 1.4 3.2 2.5 3.9 5.2 6.5 8.2 10.6 11.6 11.5 11.7 10.1 11.5 11.7 11.1 11.9 12.5 13.3 13.2 13.3 13.5 12.9 13.1 14.0 13.9 15.1 15.0 15.1 15.2 15.3 14.9 15.6 14.9 15.8
0.0 0.0 0.0 0.0 0.0 0.0 0.7 1.9 3.8 5.0 5.6 7.3 8.0 8.7 10.5 11.3 11.1 11.3 11.9 12.1 12.3 12.6 12.7 13.5 14.4 14.2 14.1 13.8 13.8 14.0 14.0 15.7 14.9 15.4 15.9 16.3 16.9 17.0 16.8 16.5 16.2 16.2 17.3
0.0 0.0 0.0 0.6 2.1 3.6 4.2 5.0 5.2 7.5 8.6 9.5 9.9 10.5 10.9 11.1 11.1 11.3 11.9 11.9 12.1 12.8 13.5 14.0 14.7 15.1 15.1 13.9 14.0 14.6 15.7 15.8 16.9 17.1 17.6 17.9 18.1 18.1 18.4 18.1 18.0 17.7 18.1
0.0 0.0 1.2 2.2 4.5 5.7 6.5 7.7 9.1 10.5 11.4 12.9 11.5 11.3 11.7 11.7 12.1 11.7 11.1 11.3 13.3 13.3 13.5 14.3 14.9 14.8 14.5 14.7 15.2 16.0 16.4 17.0 17.5 17.9 18.3 18.8 19.3 19.4 19.6 19.5 18.9 19.3 18.9
1.4 5.4 6.6 6.6 7.7 10.2 12.1 12.7 13.0 13.1 12.9 13.1 12.7 12.5 12.3 12.4 12.5 12.7 12.9 12.6 13.5 13.8 13.7 14.2 14.3 14.5 14.9 15.6 16.5 17.3 18.4 18.7 19.2 19.9 19.9 20.5 20.6 20.3 20.6 20.1 19.8 20.8 20.9
9.6 9.5 9.9 12.3 12.7 12.6 12.4 12.3 12.3 12.6 12.8 12.9 13.5 14.4 13.8 13.1 14.4 15.0 14.5 14.6 14.5 14.6 14.8 14.9 15.0 15.4 16.7 17.4 18.1 18.9 19.5 19.7 20.1 20.1 20.1 20.4 20.5 20.6 21.1 21.0 20.6 20.7 19.9
13.3 14.0 14.1 13.8 13.6 13.6 13.3 13.6 13.6 13.9 14.6 15.0 15.3 15.5 15.7 14.7 15.5 15.5 15.4 15.9 16.1 16.4 16.9 16.9 17.6 18.1 18.3 18.7 19.0 19.5 20.1 20.6 20.8 21.1 21.1 21.1 21.4 22.1 21.2 20.8 20.6 20.3 20.2
14.7 14.7 15.0 15.4 15.1 15.2 15.2 14.8 15.1 15.5 15.7 16.1 16.3 16.8 17.0 16.3 16.6 17.5 17.9 18.5 18.5 18.3 18.3 19.0 19.3 19.6 19.8 20.4 21.0 21.6 22.2 22.6 22.3 22.1 22.2 22.5 22.4 21.7 21.4 21.4 21.4 21.1 20.6
15.4 15.8 16.0 16.3 16.4 16.8 16.8 16.9 17.3 17.4 17.7 17.8 17.8 18.2 18.2 18.7 19.0 19.1 19.7 19.8 19.8 20.5 20.6 20.6 21.2 21.7 20.9 21.6 21.8 22.2 23.3 23.1 22.7 22.7 23.4 23.1 22.6 22.2 22.0 22.1 22.1 22.0 21.4
16.9 17.4 17.9 18.8 18.9 19.1 19.3 19.3 19.4 19.7 19.4 19.6 19.5 19.6 20.0 20.5 21.2 22.2 22.3 21.9 21.9 22.0 22.4 23.1 23.2 23.9 23.8 24.0 23.0 22.8 22.9 23.2 23.1 23.3 23.3 23.8 24.1 23.4 23.0 22.7 22.2 22.2 22.2
19.0 19.7 20.2 20.5 20.8 21.1 21.2 21.3 21.6 21.5 21.7 21.7 21.7 21.5 21.6 22.1 22.5 23.0 23.4 23.3 24.1 23.9 24.2 24.6 24.7 24.7 25.0 26.1 26.0 25.7 25.5 26.0 25.1 25.1 25.1 24.6 24.8 24.7 24.4 23.6 23.2 22.6 22.4
20.8 21.2 21.7 21.6 22.2 22.6 23.0 23.5 23.8 23.8 24.0 23.9 23.8 23.8 23.6 23.6 23.7 24.1 24.5 24.8 25.4 25.5 25.7 25.1 25.4 26.3 26.6 25.7 25.3 25.8 27.2 27.5 27.2 26.8 25.7 25.0 25.1 24.4 23.7 23.6 23.3 22.9 22.5